Location: Brunembert
(50.7122°N, 1.8935°E)
Time: 09:30:31
(UTC+00:00)

Cosmos 1666 - Pass Details

Date: 22 April 2021
Orbit: 496 x 519 km, 82.5° (Epoch: 05 May)

Event Time Altitude Azimuth Distance (km) Brightness Sun altitude
Rises 23:15:12 0° 354° (N) 2,633 7.6 -26.3°
Reaches altitude 10° 23:17:25 10° 0° (N) 1,738 6.3 -26.3°
Enters shadow 23:20:00 35° 29° (NNE) 839 4.1 -26.4°
